Regional Weather Roundup
Issued by NWS

Home | Current Version | Previous Version | Text Only | Print | Product List | Glossary Off
Versions: 1 2 3 4 5 6 7 8 9 10 11 12 13 14 15 16 17 18 19 20 21 22 23 24 25 26 27 28 29 30 31 32 33 34 35 36 37 38 39 40 41 42 43 44 45 46 47 48 49 50

000
ASUS43 KBIS 270810
RWRND

NORTH DAKOTA REGIONAL WEATHER ROUNDUP
NATIONAL WEATHER SERVICE BISMARCK ND
200 AM CST THU NOV 27 2014

NOTE: "FAIR" INDICATES FEW OR NO CLOUDS BELOW 12,000 FEET WITH NO
SIGNIFICANT WEATHER AND/OR OBSTRUCTIONS TO VISIBILITY.


NDZ001>003-009>011-017-270900-
NORTHWEST NORTH DAKOTA

CITY           SKY/WX    TMP DP  RH WIND       PRES   REMARKS
WILLISTON      MOCLDY     6   2  83 NE5       30.32F WCI  -3
MINOT          CLOUDY   -16 -21  78 CALM      30.39F
MINOT AFB      MOCLDY   -20 -26  76 S5        30.40F WCI -33
$$

NDZ018>021-031>035-040>046-270900-
SOUTHWEST NORTH DAKOTA

CITY           SKY/WX    TMP DP  RH WIND       PRES   REMARKS
BISMARCK       MOCLDY    -9 -14  78 E3        30.45F
DICKINSON      MOCLDY    13  10  88 S13       30.26F WCI  -2
GARRISON         N/A      2  -2  83 E5        30.38F WCI  -8
HETTINGER ARPT CLOUDY     9   6  88 SE8       30.29F WCI  -3
$$

NDZ004>008-012>016-024-026-027-054-270900-
NORTHEAST NORTH DAKOTA

CITY           SKY/WX    TMP DP  RH WIND       PRES   REMARKS
GRAND FORKS    MOCLDY   -13 -18  78 SW3       30.56F
GRND FRKS AFB  MOCLDY   -14 -19  76 SW2       30.55S
DEVILS LAKE    MOCLDY    -8 -20  54 SW5       30.44S WCI -19
$$

NDZ022-023-025-028>030-036>039-047>053-270900-
SOUTHEAST NORTH DAKOTA

CITY           SKY/WX    TMP DP  RH WIND       PRES   REMARKS
FARGO          PTCLDY   -10 -17  71 N5        30.56F WCI -22
JAMESTOWN      MOCLDY   -23 -29  73 CALM      30.48S
$$




USA.gov is the U.S. government's official web portal to all federal, state and local government web resources and services.